Year,Month,Day,Hour,Minute,Value (Times are PST for temperature in C)
2016,04,28,00,00,10.30
2016,04,28,00,01,10.30
2016,04,28,00,02,10.30
2016,04,28,00,03,10.20
2016,04,28,00,04,10.20
2016,04,28,00,05,10.30
2016,04,28,00,06,10.30
2016,04,28,00,07,10.30
2016,04,28,00,08,10.30
2016,04,28,00,09,10.30
2016,04,28,00,10,10.30
2016,04,28,00,11,10.30
2016,04,28,00,12,10.30
2016,04,28,00,13,10.30
2016,04,28,00,14,10.30
2016,04,28,00,15,10.30
2016,04,28,00,16,10.30
2016,04,28,00,17,10.30
2016,04,28,00,18,10.30
2016,04,28,00,19,10.30
2016,04,28,00,20,10.30
2016,04,28,00,21,10.30
2016,04,28,00,22,10.40
2016,04,28,00,23,10.40
2016,04,28,00,24,10.40
2016,04,28,00,25,10.40
2016,04,28,00,26,10.40
2016,04,28,00,27,10.40
2016,04,28,00,28,10.40
2016,04,28,00,29,10.40
2016,04,28,00,30,10.40
2016,04,28,00,31,10.40
2016,04,28,00,32,10.40
2016,04,28,00,33,10.40
2016,04,28,00,34,10.40
2016,04,28,00,35,10.40
2016,04,28,00,36,10.40
2016,04,28,00,37,10.40
2016,04,28,00,38,10.40
2016,04,28,00,39,10.30
2016,04,28,00,40,10.30
2016,04,28,00,41,10.30
2016,04,28,00,42,10.30
2016,04,28,00,43,10.30
2016,04,28,00,44,10.30
2016,04,28,00,45,10.20
2016,04,28,00,46,10.20
2016,04,28,00,47,10.20
2016,04,28,00,48,10.20
2016,04,28,00,49,10.20
2016,04,28,00,50,10.20
2016,04,28,00,51,10.20
2016,04,28,00,52,10.20
2016,04,28,00,53,10.20
2016,04,28,00,54,10.20
2016,04,28,00,55,10.20
2016,04,28,00,56,10.10
2016,04,28,00,57,10.10
2016,04,28,00,58,10.10
2016,04,28,00,59,10.10
2016,04,28,01,00,10.10
2016,04,28,01,01,10.10
2016,04,28,01,02,10.10
2016,04,28,01,03,10.10
2016,04,28,01,04,10.10
2016,04,28,01,05,10.10
2016,04,28,01,06,10.10
2016,04,28,01,07,10.10
2016,04,28,01,08,10.10
2016,04,28,01,09,10.20
2016,04,28,01,10,10.20
2016,04,28,01,11,10.20
2016,04,28,01,12,10.20
2016,04,28,01,13,10.20
2016,04,28,01,14,10.20
2016,04,28,01,15,10.20
2016,04,28,01,16,10.20
2016,04,28,01,17,10.20
2016,04,28,01,18,10.20
2016,04,28,01,19,10.20
2016,04,28,01,20,10.20
2016,04,28,01,21,10.20
2016,04,28,01,22,10.20
2016,04,28,01,23,10.20
2016,04,28,01,24,10.20
2016,04,28,01,25,10.20
2016,04,28,01,26,10.20
2016,04,28,01,27,10.20
2016,04,28,01,28,10.20
2016,04,28,01,29,10.10
2016,04,28,01,30,10.10
2016,04,28,01,31,10.10
2016,04,28,01,32,10.00
2016,04,28,01,33,10.00
2016,04,28,01,34,10.00
2016,04,28,01,35,9.90
2016,04,28,01,36,9.90
2016,04,28,01,37,9.90
2016,04,28,01,38,9.90
2016,04,28,01,39,9.90
2016,04,28,01,40,9.90
2016,04,28,01,41,9.90
2016,04,28,01,42,9.90
2016,04,28,01,43,9.90
2016,04,28,01,44,9.90
2016,04,28,01,45,9.90
2016,04,28,01,46,9.90
2016,04,28,01,47,9.90
2016,04,28,01,48,9.90
2016,04,28,01,49,9.90
2016,04,28,01,50,9.80
2016,04,28,01,51,9.80
2016,04,28,01,52,9.80
2016,04,28,01,53,9.70
2016,04,28,01,54,9.70
2016,04,28,01,55,9.70
2016,04,28,01,56,9.70
2016,04,28,01,57,9.70
2016,04,28,01,58,9.70
2016,04,28,01,59,9.70
2016,04,28,02,00,9.70
2016,04,28,02,01,9.60
2016,04,28,02,02,9.70
2016,04,28,02,03,9.70
2016,04,28,02,04,9.70
2016,04,28,02,05,9.70
2016,04,28,02,06,9.70
2016,04,28,02,07,9.70
2016,04,28,02,08,9.70
2016,04,28,02,09,9.70
2016,04,28,02,10,9.70
2016,04,28,02,11,9.70
2016,04,28,02,12,9.70
2016,04,28,02,13,9.70
2016,04,28,02,14,9.70
2016,04,28,02,15,9.70
2016,04,28,02,16,9.70
2016,04,28,02,17,9.70
2016,04,28,02,18,9.70
2016,04,28,02,19,9.70
2016,04,28,02,20,9.70
2016,04,28,02,21,9.70
2016,04,28,02,22,9.70
2016,04,28,02,23,9.70
2016,04,28,02,24,9.70
2016,04,28,02,25,9.70
2016,04,28,02,26,9.80
2016,04,28,02,27,9.80
2016,04,28,02,28,9.80
2016,04,28,02,29,9.80
2016,04,28,02,30,9.80
2016,04,28,02,31,9.80
2016,04,28,02,32,9.70
2016,04,28,02,33,9.70
2016,04,28,02,34,9.70
2016,04,28,02,35,9.70
2016,04,28,02,36,9.70
2016,04,28,02,37,9.70
2016,04,28,02,38,9.60
2016,04,28,02,39,9.60
2016,04,28,02,40,9.60
2016,04,28,02,41,9.60
2016,04,28,02,42,9.60
2016,04,28,02,43,9.50
2016,04,28,02,44,9.50
2016,04,28,02,45,9.50
2016,04,28,02,46,9.50
2016,04,28,02,47,9.50
2016,04,28,02,48,9.50
2016,04,28,02,49,9.40
2016,04,28,02,50,9.40
2016,04,28,02,51,9.40
2016,04,28,02,52,9.40
2016,04,28,02,53,9.40
2016,04,28,02,54,9.40
2016,04,28,02,55,9.40
2016,04,28,02,56,9.40
2016,04,28,02,57,9.40
2016,04,28,02,58,9.40
2016,04,28,02,59,9.50
2016,04,28,03,00,9.50
2016,04,28,03,01,9.50
2016,04,28,03,02,9.60
2016,04,28,03,03,9.60
2016,04,28,03,04,9.60
2016,04,28,03,05,9.60
2016,04,28,03,06,9.60
2016,04,28,03,07,9.60
2016,04,28,03,08,9.60
2016,04,28,03,09,9.60
2016,04,28,03,10,9.60
2016,04,28,03,11,9.50
2016,04,28,03,12,9.50
2016,04,28,03,13,9.50
2016,04,28,03,14,9.50
2016,04,28,03,15,9.50
2016,04,28,03,16,9.50
2016,04,28,03,17,9.50
2016,04,28,03,18,9.50
2016,04,28,03,19,9.50
2016,04,28,03,20,9.50
2016,04,28,03,21,9.50
2016,04,28,03,22,9.50
2016,04,28,03,23,9.50
2016,04,28,03,24,9.60
2016,04,28,03,25,9.60
2016,04,28,03,26,9.60
2016,04,28,03,27,9.60
2016,04,28,03,28,9.60
2016,04,28,03,29,9.60
2016,04,28,03,30,9.60
2016,04,28,03,31,9.60
2016,04,28,03,32,9.60
2016,04,28,03,33,9.60
2016,04,28,03,34,9.60
2016,04,28,03,35,9.60
2016,04,28,03,36,9.60
2016,04,28,03,37,9.60
2016,04,28,03,38,9.60
2016,04,28,03,39,9.60
2016,04,28,03,40,9.60
2016,04,28,03,41,9.60
2016,04,28,03,42,9.60
2016,04,28,03,43,9.60
2016,04,28,03,44,9.60
2016,04,28,03,45,9.60
2016,04,28,03,46,9.60
2016,04,28,03,47,9.60
2016,04,28,03,48,9.50
2016,04,28,03,49,9.50
2016,04,28,03,50,9.50
2016,04,28,03,51,9.50
2016,04,28,03,52,9.50
2016,04,28,03,53,9.50
2016,04,28,03,54,9.40
2016,04,28,03,55,9.40
2016,04,28,03,56,9.40
2016,04,28,03,57,9.40
2016,04,28,03,58,9.40
2016,04,28,03,59,9.50
2016,04,28,04,00,9.50
2016,04,28,04,01,9.50
2016,04,28,04,02,9.50
2016,04,28,04,03,9.50
2016,04,28,04,04,9.50
2016,04,28,04,05,9.60
2016,04,28,04,06,9.60
2016,04,28,04,07,9.60
2016,04,28,04,08,9.60
2016,04,28,04,09,9.60
2016,04,28,04,10,9.60
2016,04,28,04,11,9.60
2016,04,28,04,12,9.60
2016,04,28,04,13,9.60
2016,04,28,04,14,9.60
2016,04,28,04,15,9.60
2016,04,28,04,16,9.60
2016,04,28,04,17,9.60
2016,04,28,04,18,9.60
2016,04,28,04,19,9.60
2016,04,28,04,20,9.60
2016,04,28,04,21,9.60
2016,04,28,04,22,9.60
2016,04,28,04,23,9.60
2016,04,28,04,24,9.50
2016,04,28,04,25,9.50
2016,04,28,04,26,9.50
2016,04,28,04,27,9.50
2016,04,28,04,28,9.50
2016,04,28,04,29,9.50
2016,04,28,04,30,9.50
2016,04,28,04,31,9.50
2016,04,28,04,32,9.50
2016,04,28,04,33,9.50
2016,04,28,04,34,9.60
2016,04,28,04,35,9.60
2016,04,28,04,36,9.60
2016,04,28,04,37,9.60
2016,04,28,04,38,9.60
2016,04,28,04,39,9.60
2016,04,28,04,40,9.60
2016,04,28,04,41,9.60
2016,04,28,04,42,9.60
2016,04,28,04,43,9.60
2016,04,28,04,44,9.60
2016,04,28,04,45,9.60
2016,04,28,04,46,9.60
2016,04,28,04,47,9.60
2016,04,28,04,48,9.60
2016,04,28,04,49,9.60
2016,04,28,04,50,9.50
2016,04,28,04,51,9.50
2016,04,28,04,52,9.50
2016,04,28,04,53,9.40
2016,04,28,04,54,9.40
2016,04,28,04,55,9.40
2016,04,28,04,56,9.40
2016,04,28,04,57,9.40
2016,04,28,04,58,9.30
2016,04,28,04,59,9.40
2016,04,28,05,00,9.30
2016,04,28,05,01,9.30
2016,04,28,05,02,9.40
2016,04,28,05,03,9.40
2016,04,28,05,04,9.40
2016,04,28,05,05,9.40
2016,04,28,05,06,9.40
2016,04,28,05,07,9.40
2016,04,28,05,08,9.40
2016,04,28,05,09,9.40
2016,04,28,05,10,9.40
2016,04,28,05,11,9.40
2016,04,28,05,12,9.40
2016,04,28,05,13,9.40
2016,04,28,05,14,9.40
2016,04,28,05,15,9.40
2016,04,28,05,16,9.40
2016,04,28,05,17,9.40
2016,04,28,05,18,9.40
2016,04,28,05,19,9.40
2016,04,28,05,20,9.40
2016,04,28,05,21,9.40
2016,04,28,05,22,9.40
2016,04,28,05,23,9.40
2016,04,28,05,24,9.40
2016,04,28,05,25,9.40
2016,04,28,05,26,9.40
2016,04,28,05,27,9.40
2016,04,28,05,28,9.40
2016,04,28,05,29,9.40
2016,04,28,05,30,9.40
2016,04,28,05,31,9.40
2016,04,28,05,32,9.40
2016,04,28,05,33,9.40
2016,04,28,05,34,9.40
2016,04,28,05,35,9.40
2016,04,28,05,36,9.40
2016,04,28,05,37,9.40
2016,04,28,05,38,9.40
2016,04,28,05,39,9.40
2016,04,28,05,40,9.40
2016,04,28,05,41,9.40
2016,04,28,05,42,9.40
2016,04,28,05,43,9.40
2016,04,28,05,44,9.40
2016,04,28,05,45,9.40
2016,04,28,05,46,9.40
2016,04,28,05,47,9.40
2016,04,28,05,48,9.50
2016,04,28,05,49,9.40
2016,04,28,05,50,9.40
2016,04,28,05,51,9.40
2016,04,28,05,52,9.40
2016,04,28,05,53,9.50
2016,04,28,05,54,9.50
2016,04,28,05,55,9.50
2016,04,28,05,56,9.50
2016,04,28,05,57,9.50
2016,04,28,05,58,9.50
2016,04,28,05,59,9.50
2016,04,28,06,00,9.50
2016,04,28,06,01,9.50
2016,04,28,06,02,9.50
2016,04,28,06,03,9.50
2016,04,28,06,04,9.50
2016,04,28,06,05,9.50
2016,04,28,06,06,9.60
2016,04,28,06,07,9.60
2016,04,28,06,08,9.60
2016,04,28,06,09,9.60
2016,04,28,06,10,9.60
2016,04,28,06,11,9.60
2016,04,28,06,12,9.60
2016,04,28,06,13,9.60
2016,04,28,06,14,9.60
2016,04,28,06,15,9.60
2016,04,28,06,16,9.60
2016,04,28,06,17,9.70
2016,04,28,06,18,9.70
2016,04,28,06,19,9.70
2016,04,28,06,20,9.70
2016,04,28,06,21,9.70
2016,04,28,06,22,9.70
2016,04,28,06,23,9.70
2016,04,28,06,24,9.70
2016,04,28,06,25,9.70
2016,04,28,06,26,9.70
2016,04,28,06,27,9.70
2016,04,28,06,28,9.60
2016,04,28,06,29,9.60
2016,04,28,06,30,9.60
2016,04,28,06,31,9.50
2016,04,28,06,32,9.50
2016,04,28,06,33,9.50
2016,04,28,06,34,9.50
2016,04,28,06,35,9.50
2016,04,28,06,36,9.50
2016,04,28,06,37,9.50
2016,04,28,06,38,9.50
2016,04,28,06,39,9.50
2016,04,28,06,40,9.50
2016,04,28,06,41,9.50
2016,04,28,06,42,9.50
2016,04,28,06,43,9.50
2016,04,28,06,44,9.50
2016,04,28,06,45,9.50
2016,04,28,06,46,9.50
2016,04,28,06,47,9.50
2016,04,28,06,48,9.50
2016,04,28,06,49,9.50
2016,04,28,06,50,9.40
2016,04,28,06,51,9.40
2016,04,28,06,52,9.40
2016,04,28,06,53,9.40
2016,04,28,06,54,9.40
2016,04,28,06,55,9.40
2016,04,28,06,56,9.40
2016,04,28,06,57,9.50
2016,04,28,06,58,9.50
2016,04,28,06,59,9.50
2016,04,28,07,00,9.50
2016,04,28,07,01,9.50
2016,04,28,07,02,9.60
2016,04,28,07,03,9.60
2016,04,28,07,04,9.60
2016,04,28,07,05,9.60
2016,04,28,07,06,9.70
2016,04,28,07,07,9.70
2016,04,28,07,08,9.70
2016,04,28,07,09,9.70
2016,04,28,07,10,9.70
2016,04,28,07,11,9.70
2016,04,28,07,12,9.70
2016,04,28,07,13,9.70
2016,04,28,07,14,9.70
2016,04,28,07,15,9.70
2016,04,28,07,16,9.70
2016,04,28,07,17,9.70
2016,04,28,07,18,9.80
2016,04,28,07,19,9.80
2016,04,28,07,20,9.80
2016,04,28,07,21,9.80
2016,04,28,07,22,9.80
2016,04,28,07,23,9.80
2016,04,28,07,24,9.80
2016,04,28,07,25,9.90
2016,04,28,07,26,9.90
2016,04,28,07,27,9.90
2016,04,28,07,28,9.90
2016,04,28,07,29,9.90
2016,04,28,07,30,9.90
2016,04,28,07,31,9.90
2016,04,28,07,32,9.90
2016,04,28,07,33,9.90
2016,04,28,07,34,9.90
2016,04,28,07,35,9.90
2016,04,28,07,36,9.90
2016,04,28,07,37,9.90
2016,04,28,07,38,10.00
2016,04,28,07,39,10.00
2016,04,28,07,40,10.00
2016,04,28,07,41,10.00
2016,04,28,07,42,10.00
2016,04,28,07,43,10.00
2016,04,28,07,44,10.10
2016,04,28,07,45,10.10
2016,04,28,07,46,10.10
2016,04,28,07,47,10.10
2016,04,28,07,48,10.10
2016,04,28,07,49,10.10
2016,04,28,07,50,10.20
2016,04,28,07,51,10.20
2016,04,28,07,52,10.20
2016,04,28,07,53,10.20
2016,04,28,07,54,10.20
2016,04,28,07,55,10.30
2016,04,28,07,56,10.30
2016,04,28,07,57,10.30
2016,04,28,07,58,10.30
2016,04,28,07,59,10.40
2016,04,28,08,00,10.40
2016,04,28,08,01,10.40
2016,04,28,08,02,10.40
2016,04,28,08,03,10.40
2016,04,28,08,04,10.40
2016,04,28,08,05,10.50
2016,04,28,08,06,10.50
2016,04,28,08,07,10.50
2016,04,28,08,08,10.60
2016,04,28,08,09,10.60
2016,04,28,08,10,10.60
2016,04,28,08,11,10.60
2016,04,28,08,12,10.70
2016,04,28,08,13,10.70
2016,04,28,08,14,10.70
2016,04,28,08,15,10.70
2016,04,28,08,16,10.70
2016,04,28,08,17,10.70
2016,04,28,08,18,10.70
2016,04,28,08,19,10.80
2016,04,28,08,20,10.80
2016,04,28,08,21,10.80
2016,04,28,08,22,10.80
2016,04,28,08,23,10.80
2016,04,28,08,24,10.80
2016,04,28,08,25,10.90
2016,04,28,08,26,10.90
2016,04,28,08,27,10.90
2016,04,28,08,28,10.90
2016,04,28,08,29,10.90
2016,04,28,08,30,10.90
2016,04,28,08,31,11.00
2016,04,28,08,32,11.00
2016,04,28,08,33,11.00
2016,04,28,08,34,11.10
2016,04,28,08,35,11.10
2016,04,28,08,36,11.10
2016,04,28,08,37,11.20
2016,04,28,08,38,11.20
2016,04,28,08,39,11.20
2016,04,28,08,40,11.20
2016,04,28,08,41,11.20
2016,04,28,08,42,11.30
2016,04,28,08,43,11.30
2016,04,28,08,44,11.30
2016,04,28,08,45,11.30
2016,04,28,08,46,11.30
2016,04,28,08,47,11.30
2016,04,28,08,48,11.40
2016,04,28,08,49,11.40
2016,04,28,08,50,11.40
2016,04,28,08,51,11.50
2016,04,28,08,52,11.50
2016,04,28,08,53,11.60
2016,04,28,08,54,11.60
2016,04,28,08,55,11.70
2016,04,28,08,56,11.70
2016,04,28,08,57,11.70
2016,04,28,08,58,11.80
2016,04,28,08,59,11.80
2016,04,28,09,00,11.90
2016,04,28,09,01,11.90
2016,04,28,09,02,12.00
2016,04,28,09,03,12.10
2016,04,28,09,04,12.10
2016,04,28,09,05,12.20
2016,04,28,09,06,12.20
2016,04,28,09,07,12.20
2016,04,28,09,08,12.20
2016,04,28,09,09,12.20
2016,04,28,09,10,12.30
2016,04,28,09,11,12.30
2016,04,28,09,12,12.40
2016,04,28,09,13,12.40
2016,04,28,09,14,12.50
2016,04,28,09,15,12.60
2016,04,28,09,16,12.70
2016,04,28,09,17,12.70
2016,04,28,09,18,12.80
2016,04,28,09,19,12.90
2016,04,28,09,20,12.90
2016,04,28,09,21,13.00
2016,04,28,09,22,13.10
2016,04,28,09,23,13.20
2016,04,28,09,24,13.30
2016,04,28,09,25,13.30
2016,04,28,09,26,13.40
2016,04,28,09,27,13.50
2016,04,28,09,28,13.60
2016,04,28,09,29,13.70
2016,04,28,09,30,13.70
2016,04,28,09,31,13.70
2016,04,28,09,32,13.70
2016,04,28,09,33,13.70
2016,04,28,09,34,13.80
2016,04,28,09,35,13.90
2016,04,28,09,36,14.00
2016,04,28,09,37,14.10
2016,04,28,09,38,14.10
2016,04,28,09,39,14.20
2016,04,28,09,40,14.20
2016,04,28,09,41,14.20
2016,04,28,09,42,14.10
2016,04,28,09,43,14.00
2016,04,28,09,44,14.00
2016,04,28,09,45,13.90
2016,04,28,09,46,13.90
2016,04,28,09,47,13.90
2016,04,28,09,48,13.90
2016,04,28,09,49,13.90
2016,04,28,09,50,13.90
2016,04,28,09,51,14.00
2016,04,28,09,52,14.10
2016,04,28,09,53,14.20
2016,04,28,09,54,14.30
2016,04,28,09,55,14.40
2016,04,28,09,56,14.50
2016,04,28,09,57,14.60
2016,04,28,09,58,14.70
2016,04,28,09,59,14.70
2016,04,28,10,00,14.80
2016,04,28,10,01,14.80
2016,04,28,10,02,14.80
2016,04,28,10,03,14.70
2016,04,28,10,04,14.70
2016,04,28,10,05,14.70
2016,04,28,10,06,14.80
2016,04,28,10,07,14.90
2016,04,28,10,08,14.90
2016,04,28,10,09,15.00
2016,04,28,10,10,15.10
2016,04,28,10,11,15.00
2016,04,28,10,12,14.90
2016,04,28,10,13,14.90
2016,04,28,10,14,15.00
2016,04,28,10,15,15.10
2016,04,28,10,16,15.10
2016,04,28,10,17,15.20
2016,04,28,10,18,15.30
2016,04,28,10,19,15.40
2016,04,28,10,20,15.30
2016,04,28,10,21,15.20
2016,04,28,10,22,15.20
2016,04,28,10,23,15.10
2016,04,28,10,24,15.10
2016,04,28,10,25,15.10
2016,04,28,10,26,15.20
2016,04,28,10,27,15.30
2016,04,28,10,28,15.40
2016,04,28,10,29,15.40
2016,04,28,10,30,15.50
2016,04,28,10,31,15.50
2016,04,28,10,32,15.50
2016,04,28,10,33,15.50
2016,04,28,10,34,15.50
2016,04,28,10,35,15.50
2016,04,28,10,36,15.50
2016,04,28,10,37,15.50
2016,04,28,10,38,15.50
2016,04,28,10,39,15.50
2016,04,28,10,40,15.60
2016,04,28,10,41,15.60
2016,04,28,10,42,15.70
2016,04,28,10,43,15.70
2016,04,28,10,44,15.70
2016,04,28,10,45,15.60
2016,04,28,10,46,15.70
2016,04,28,10,47,15.70
2016,04,28,10,48,15.70
2016,04,28,10,49,15.70
2016,04,28,10,50,15.80
2016,04,28,10,51,15.80
2016,04,28,10,52,15.80
2016,04,28,10,53,15.80
2016,04,28,10,54,15.80
2016,04,28,10,55,15.90
2016,04,28,10,56,16.10
2016,04,28,10,57,16.20
2016,04,28,10,58,16.20
2016,04,28,10,59,16.10
2016,04,28,11,00,16.10
2016,04,28,11,01,16.00
2016,04,28,11,02,16.00
2016,04,28,11,03,16.00
2016,04,28,11,04,16.10
2016,04,28,11,05,16.10
2016,04,28,11,06,16.20
2016,04,28,11,07,16.20
2016,04,28,11,08,16.30
2016,04,28,11,09,16.40
2016,04,28,11,10,16.40
2016,04,28,11,11,16.50
2016,04,28,11,12,16.50
2016,04,28,11,13,16.50
2016,04,28,11,14,16.60
2016,04,28,11,15,16.70
2016,04,28,11,16,16.80
2016,04,28,11,17,16.80
2016,04,28,11,18,16.80
2016,04,28,11,19,16.80
2016,04,28,11,20,16.90
2016,04,28,11,21,17.00
2016,04,28,11,22,17.00
2016,04,28,11,23,17.10
2016,04,28,11,24,17.00
2016,04,28,11,25,17.00
2016,04,28,11,26,17.00
2016,04,28,11,27,17.00
2016,04,28,11,28,17.00
2016,04,28,11,29,17.00
2016,04,28,11,30,17.00
2016,04,28,11,31,17.00
2016,04,28,11,32,17.10
2016,04,28,11,33,17.10
2016,04,28,11,34,17.20
2016,04,28,11,35,17.30
2016,04,28,11,36,17.30
2016,04,28,11,37,17.30
2016,04,28,11,38,17.30
2016,04,28,11,39,17.30
2016,04,28,11,40,17.30
2016,04,28,11,41,17.40
2016,04,28,11,42,17.40
2016,04,28,11,43,17.40
2016,04,28,11,44,17.40
2016,04,28,11,45,17.40
2016,04,28,11,46,17.30
2016,04,28,11,47,17.20
2016,04,28,11,48,17.10
2016,04,28,11,49,17.10
2016,04,28,11,50,16.90
2016,04,28,11,51,16.80
2016,04,28,11,52,16.70
2016,04,28,11,53,16.60
2016,04,28,11,54,16.60
2016,04,28,11,55,16.60
2016,04,28,11,56,16.60
2016,04,28,11,57,16.60
2016,04,28,11,58,16.50
2016,04,28,11,59,16.50
2016,04,28,12,00,16.50
2016,04,28,12,01,16.50
2016,04,28,12,02,16.50
2016,04,28,12,03,16.50
2016,04,28,12,04,16.60
2016,04,28,12,05,16.60
2016,04,28,12,06,16.70
2016,04,28,12,07,16.80
2016,04,28,12,08,16.80
2016,04,28,12,09,16.90
2016,04,28,12,10,16.90
2016,04,28,12,11,16.90
2016,04,28,12,12,16.90
2016,04,28,12,13,16.90
2016,04,28,12,14,17.00
2016,04,28,12,15,17.00
2016,04,28,12,16,16.90
2016,04,28,12,17,16.90
2016,04,28,12,18,16.80
2016,04,28,12,19,16.70
2016,04,28,12,20,16.70
2016,04,28,12,21,16.70
2016,04,28,12,22,16.80
2016,04,28,12,23,16.90
2016,04,28,12,24,16.90
2016,04,28,12,25,17.00
2016,04,28,12,26,17.10
2016,04,28,12,27,17.20
2016,04,28,12,28,17.30
2016,04,28,12,29,17.50
2016,04,28,12,30,17.60
2016,04,28,12,31,17.60
2016,04,28,12,32,17.50
2016,04,28,12,33,17.40
2016,04,28,12,34,17.30
2016,04,28,12,35,17.20
2016,04,28,12,36,17.10
2016,04,28,12,37,17.00
2016,04,28,12,38,16.90
2016,04,28,12,39,16.80
2016,04,28,12,40,16.80
2016,04,28,12,41,16.70
2016,04,28,12,42,16.70
2016,04,28,12,43,16.70
2016,04,28,12,44,16.80
2016,04,28,12,45,16.80
2016,04,28,12,46,16.80
2016,04,28,12,47,16.80
2016,04,28,12,48,16.80
2016,04,28,12,49,16.80
2016,04,28,12,50,16.80
2016,04,28,12,51,16.80
2016,04,28,12,52,16.90
2016,04,28,12,53,16.90
2016,04,28,12,54,17.00
2016,04,28,12,55,17.10
2016,04,28,12,56,17.10
2016,04,28,12,57,17.10
2016,04,28,12,58,17.10
2016,04,28,12,59,17.10
2016,04,28,13,00,17.10
2016,04,28,13,01,17.10
2016,04,28,13,02,17.20
2016,04,28,13,03,17.20
2016,04,28,13,04,17.20
2016,04,28,13,05,17.20
2016,04,28,13,06,17.10
2016,04,28,13,07,17.00
2016,04,28,13,08,16.90
2016,04,28,13,09,16.90
2016,04,28,13,10,16.90
2016,04,28,13,11,16.90
2016,04,28,13,12,16.90
2016,04,28,13,13,17.00
2016,04,28,13,14,17.00
2016,04,28,13,15,17.10
2016,04,28,13,16,17.10
2016,04,28,13,17,17.10
2016,04,28,13,18,17.10
2016,04,28,13,19,17.10
2016,04,28,13,20,17.10
2016,04,28,13,21,17.00
2016,04,28,13,22,17.00
2016,04,28,13,23,17.00
2016,04,28,13,24,17.00
2016,04,28,13,25,17.00
2016,04,28,13,26,17.10
2016,04,28,13,27,17.10
2016,04,28,13,28,16.90
2016,04,28,13,29,16.80
2016,04,28,13,30,16.80
2016,04,28,13,31,16.80
2016,04,28,13,32,16.80
2016,04,28,13,33,16.90
2016,04,28,13,34,16.90
2016,04,28,13,35,16.90
2016,04,28,13,36,16.90
2016,04,28,13,37,16.90
2016,04,28,13,38,16.90
2016,04,28,13,39,17.00
2016,04,28,13,40,17.00
2016,04,28,13,41,17.10
2016,04,28,13,42,17.30
2016,04,28,13,43,17.40
2016,04,28,13,44,17.40
2016,04,28,13,45,17.50
2016,04,28,13,46,17.60
2016,04,28,13,47,17.60
2016,04,28,13,48,17.60
2016,04,28,13,49,17.50
2016,04,28,13,50,17.50
2016,04,28,13,51,17.40
2016,04,28,13,52,17.40
2016,04,28,13,53,17.40
2016,04,28,13,54,17.50
2016,04,28,13,55,17.50
2016,04,28,13,56,17.40
2016,04,28,13,57,17.30
2016,04,28,13,58,17.30
2016,04,28,13,59,17.20
2016,04,28,14,00,17.30
2016,04,28,14,01,17.40
2016,04,28,14,02,17.40
2016,04,28,14,03,17.40
2016,04,28,14,04,17.40
2016,04,28,14,05,17.30
2016,04,28,14,06,17.30
2016,04,28,14,07,17.30
2016,04,28,14,08,17.30
2016,04,28,14,09,17.30
2016,04,28,14,10,17.30
2016,04,28,14,11,17.30
2016,04,28,14,12,17.30
2016,04,28,14,13,17.30
2016,04,28,14,14,17.30
2016,04,28,14,15,17.30
2016,04,28,14,16,17.30
2016,04,28,14,17,17.30
2016,04,28,14,18,17.30
2016,04,28,14,19,17.30
2016,04,28,14,20,17.20
2016,04,28,14,21,17.10
2016,04,28,14,22,17.10
2016,04,28,14,23,17.20
2016,04,28,14,24,17.30
2016,04,28,14,25,17.30
2016,04,28,14,26,17.40
2016,04,28,14,27,17.50
2016,04,28,14,28,17.60
2016,04,28,14,29,17.60
2016,04,28,14,30,17.70
2016,04,28,14,31,17.70
2016,04,28,14,32,17.70
2016,04,28,14,33,17.80
2016,04,28,14,34,17.80
2016,04,28,14,35,17.80
2016,04,28,14,36,17.90
2016,04,28,14,37,17.90
2016,04,28,14,38,17.90
2016,04,28,14,39,17.80
2016,04,28,14,40,17.80
2016,04,28,14,41,17.80
2016,04,28,14,42,17.80
2016,04,28,14,43,17.80
2016,04,28,14,44,17.90
2016,04,28,14,45,18.00
2016,04,28,14,46,18.00
2016,04,28,14,47,18.10
2016,04,28,14,48,18.10
2016,04,28,14,49,18.10
2016,04,28,14,50,18.00
2016,04,28,14,51,18.00
2016,04,28,14,52,18.00
2016,04,28,14,53,18.10
2016,04,28,14,54,18.10
2016,04,28,14,55,18.20
2016,04,28,14,56,18.30
2016,04,28,14,57,18.40
2016,04,28,14,58,18.50
2016,04,28,14,59,18.50
2016,04,28,15,00,18.60
2016,04,28,15,01,18.60
2016,04,28,15,02,18.50
2016,04,28,15,03,18.30
2016,04,28,15,04,18.20
2016,04,28,15,05,18.30
2016,04,28,15,06,18.30
2016,04,28,15,07,18.30
2016,04,28,15,08,18.20
2016,04,28,15,09,18.00
2016,04,28,15,10,17.80
2016,04,28,15,11,17.70
2016,04,28,15,12,17.70
2016,04,28,15,13,17.60
2016,04,28,15,14,17.60
2016,04,28,15,15,17.50
2016,04,28,15,16,17.40
2016,04,28,15,17,17.30
2016,04,28,15,18,17.40
2016,04,28,15,19,17.40
2016,04,28,15,20,17.50
2016,04,28,15,21,17.50
2016,04,28,15,22,17.50
2016,04,28,15,23,17.50
2016,04,28,15,24,17.50
2016,04,28,15,25,17.50
2016,04,28,15,26,17.50
2016,04,28,15,27,17.30
2016,04,28,15,28,17.30
2016,04,28,15,29,17.20
2016,04,28,15,30,17.20
2016,04,28,15,31,17.20
2016,04,28,15,32,17.10
2016,04,28,15,33,17.20
2016,04,28,15,34,17.20
2016,04,28,15,35,17.20
2016,04,28,15,36,17.20
2016,04,28,15,37,17.10
2016,04,28,15,38,17.10
2016,04,28,15,39,17.30
2016,04,28,15,40,17.50
2016,04,28,15,41,17.60
2016,04,28,15,42,17.70
2016,04,28,15,43,17.70
2016,04,28,15,44,17.70
2016,04,28,15,45,17.80
2016,04,28,15,46,17.80
2016,04,28,15,47,17.80
2016,04,28,15,48,17.80
2016,04,28,15,49,17.70
2016,04,28,15,50,17.60
2016,04,28,15,51,17.60
2016,04,28,15,52,17.50
2016,04,28,15,53,17.40
2016,04,28,15,54,17.30
2016,04,28,15,55,17.40
2016,04,28,15,56,17.50
2016,04,28,15,57,17.60
2016,04,28,15,58,17.60
2016,04,28,15,59,17.60
2016,04,28,16,00,17.70
2016,04,28,16,01,17.70
2016,04,28,16,02,17.80
2016,04,28,16,03,17.80
2016,04,28,16,04,17.70
2016,04,28,16,05,17.60
2016,04,28,16,06,17.60
2016,04,28,16,07,17.50
2016,04,28,16,08,17.40
2016,04,28,16,09,17.40
2016,04,28,16,10,17.30
2016,04,28,16,11,17.20
2016,04,28,16,12,17.20
2016,04,28,16,13,17.20
2016,04,28,16,14,17.10
2016,04,28,16,15,17.10
2016,04,28,16,16,17.20
2016,04,28,16,17,17.20
2016,04,28,16,18,17.20
2016,04,28,16,19,17.20
2016,04,28,16,20,17.20
2016,04,28,16,21,16.90
2016,04,28,16,22,16.70
2016,04,28,16,23,16.50
2016,04,28,16,24,16.50
2016,04,28,16,25,16.60
2016,04,28,16,26,16.50
2016,04,28,16,27,16.50
2016,04,28,16,28,16.30
2016,04,28,16,29,16.20
2016,04,28,16,30,16.10
2016,04,28,16,31,16.10
2016,04,28,16,32,16.00
2016,04,28,16,33,16.10
2016,04,28,16,34,16.10
2016,04,28,16,35,16.00
2016,04,28,16,36,16.10
2016,04,28,16,37,16.20
2016,04,28,16,38,16.20
2016,04,28,16,39,16.20
2016,04,28,16,40,16.20
2016,04,28,16,41,16.20
2016,04,28,16,42,16.30
2016,04,28,16,43,16.30
2016,04,28,16,44,16.20
2016,04,28,16,45,16.20
2016,04,28,16,46,16.20
2016,04,28,16,47,16.20
2016,04,28,16,48,16.20
2016,04,28,16,49,16.20
2016,04,28,16,50,16.20
2016,04,28,16,51,16.20
2016,04,28,16,52,16.20
2016,04,28,16,53,16.20
2016,04,28,16,54,16.20
2016,04,28,16,55,16.10
2016,04,28,16,56,16.20
2016,04,28,16,57,16.20
2016,04,28,16,58,16.10
2016,04,28,16,59,16.20
2016,04,28,17,00,16.10
2016,04,28,17,01,16.10
2016,04,28,17,02,16.10
2016,04,28,17,03,16.00
2016,04,28,17,04,16.00
2016,04,28,17,05,16.10
2016,04,28,17,06,16.10
2016,04,28,17,07,16.10
2016,04,28,17,08,16.10
2016,04,28,17,09,16.20
2016,04,28,17,10,16.20
2016,04,28,17,11,16.20
2016,04,28,17,12,16.10
2016,04,28,17,13,16.10
2016,04,28,17,14,16.00
2016,04,28,17,15,15.90
2016,04,28,17,16,15.80
2016,04,28,17,17,15.90
2016,04,28,17,18,15.90
2016,04,28,17,19,16.00
2016,04,28,17,20,16.10
2016,04,28,17,21,16.10
2016,04,28,17,22,16.10
2016,04,28,17,23,16.10
2016,04,28,17,24,16.00
2016,04,28,17,25,15.90
2016,04,28,17,26,15.80
2016,04,28,17,27,15.70
2016,04,28,17,28,15.80
2016,04,28,17,29,15.90
2016,04,28,17,30,15.80
2016,04,28,17,31,15.80
2016,04,28,17,32,15.80
2016,04,28,17,33,15.80
2016,04,28,17,34,15.80
2016,04,28,17,35,15.80